sat.trackr.live / text

‹ back to catalog

SHIJIAN-25 (SJ-25)

NORAD 62485 · 2025-002A

PAYLOAD ACTIVE UNKNOWN

§ Identity

Operator
Country
PRC
Launch date
2025-01-06
Launch site
XICLF
Launch vehicle
Mass (kg)
RCS (m²)

Purposes: comms

External: N2YO · Heavens-Above · Gunter

§ Orbital elements

Epoch: 2026-09-19T17:49:34.236768Z

Period
1,436.03 min
Inclination
5.3332°
Eccentricity
0.0046726
Mean motion
1.00276289 rev/d
Perigee alt
35,588.3 km
Apogee alt
35,982.3 km
Semi-major
42,163.5 km
B*
0.0000e+0
RAAN
60.5140°
Arg perigee
179.7512°
Mean anomaly
153.2654°
Rev number
630

§ Raw data

SHIJIAN-25 (SJ-25)1 62485U 25002A   26262.74275737 -.00000351  00000+0  00000+0 0  99922 62485   5.3332  60.5140 0046726 179.7512 153.2654  1.00276289  6306

JSON: /api/v1/satellites/62485 · /tle

For live sub-satellite position, see the globe view (requires WebGL).

§ Visibility from observer

Set your observer location to see the next 7 days of passes ≥ 10°. The values pass through the URL so the page stays shareable.

No JS? Fill the form by hand. The geolocation button needs JavaScript.